Find Jilin-1 Kuanfu-02B 01

NORAD ID: 61189 Int'l Des: 2024-169 Owner: CGSTL Country: CN Constellation: jilin-1 operational
LEOCIRCULARRETROGRADESSO

当前视图

正在加载3D地球...

About Jilin-1 Kuanfu-02B 01

Jilin-1 Kuanfu-02B 01 (NORAD 61189) is a jilin-1 constellation satellite launched Sep 20, 2024 by CGSTL of CN. It operates in LEO, CIRCULAR, RETROGRADE, SSO orbit with a mass of 230.00 kg.

关于 Jilin-1 Kuanfu-02B 01

正在加载描述...

即将过境

Passes for default location (London). Set your location on the main map for personalized predictions.

高度历史

Loading altitude history...

两行轨道根数

1 61189U 24169A 26195.17194456 .00001860 00000-0 12145-3 0 9998
2 61189 97.5576 284.2801 0001610 346.4305 13.6880 15.09053965 99898
Epoch: Jul 14, 2026 • Age: 5 hours

当前状态

高度 547.8 km
远地点 / 近地点 N/A
速度 7.59 km/s
星下点 -26.08°S, 135.84°W
发射日期 Sep 20, 2024
运行时间 1.8 years
类型 earth observation

技术详情

分类 Payload
质量 230.00 kg
干质量 200.00 kg
总质量 230.00 kg
长度 0.50 m
直径 0.50 m
跨度 1.50 m
形状 Box + 2 pan
制造商 HARB/CGSTL
平台类型 JL-1
阶段状态 In Orbit
所有者/国家 CGSTL/CN

Most Searched